Location: Unspecified
(0.0000°N, 0.0000°E)
Time: 22:29:03
(UTC+00:00)

PAYLOAD B - Visible Passes

Search period start: 06 June 2023 00:00
Search period end: 16 June 2023 00:00
Orbit: 1416 x 1425 km, 82.5° (Epoch: 06 June)

Date Brightness Start Highest point End Pass type
(mag) Time Alt. Az. Time Alt. Az. Time Alt. Az.
06 Jun 8.4 20:41:26 48° NNE 20:41:26 48° NNE 20:47:09 10° N visible
07 Jun 9.1 19:32:00 21° ENE 19:32:00 21° ENE 19:36:14 10° NE visible
07 Jun 8.9 21:26:13 40° WNW 21:26:13 40° WNW 21:32:37 10° NNW visible
08 Jun 7.9 20:16:38 62° ENE 20:16:38 62° ENE 20:24:22 10° NNE visible
08 Jun 10.1 22:10:49 14° W 22:10:51 14° W 22:14:47 10° WNW visible
09 Jun 9.1 19:06:52 19° E 19:07:21 19° E 19:12:43 10° NE visible
09 Jun 8.5 21:01:03 49° WSW 21:02:07 51° W 21:10:12 10° NNW visible
10 Jun 8.0 19:51:00 42° SE 19:53:24 53° E 20:01:31 10° NNE visible
10 Jun 10.0 21:45:08 15° WSW 21:48:11 18° W 21:53:23 10° NW visible
11 Jun 9.3 18:40:25 10° SE 18:44:40 15° E 18:48:54 10° ENE visible
11 Jun 8.3 20:34:29 27° SSW 20:39:28 61° W 20:47:44 10° N visible
12 Jun 8.2 19:22:50 10° SSE 19:30:44 44° E 19:38:35 10° NNE visible
12 Jun 9.8 21:19:27 10° SW 21:25:30 22° W 21:31:36 10° NW visible
13 Jun 9.4 18:19:40 10° ESE 18:21:59 11° E 18:24:18 10° ENE visible
13 Jun 8.1 20:08:23 10° S 20:16:48 73° W 20:25:10 10° N visible
14 Jun 8.4 19:00:30 10° SSE 19:08:04 37° E 19:15:35 10° NNE visible
14 Jun 9.6 20:56:06 10° SW 21:02:50 27° W 21:09:36 10° NNW visible
15 Jun 7.9 19:45:39 10° S 19:54:08 86° W 20:02:34 10° N visible
